Regional Weather Roundup
Issued by NWS Kansas City/Pleasant Hill, MO

Home | Current Version | Previous Version | Graphics & Text | Print | Product List | Glossary Off
Versions: 1 2 3 4 5 6 7 8 9 10 11 12 13 14 15 16 17 18 19 20 21 22 23 24 25 26 27 28 29 30 31 32 33 34 35 36 37 38 39 40 41 42 43 44 45 46 47 48 49 50

000
ASUS43 KEAX 161004
RWREAX

WEATHER ROUNDUP FOR EASTERN KANSAS AND NORTHWEST MISSOURI
NATIONAL WEATHER SERVICE KANSAS CITY/PLEASANT HILL MO
500 AM CDT WED APR 16 2014

KSZ040-057-103>105-MOZ028-029-037-043-161100-
...KANSAS CITY METROPOLITAN AREA...

CITY           SKY/WX    TMP DP  RH WIND       PRES   REMARKS
K.C. INTL      PTCLDY    45  24  43 S18       29.94F
K.C. DOWNTOWN  CLEAR     47  24  40 S16G29    29.96F
LEES SUMMIT    CLEAR     44  24  45 S15G23    29.98F
OLATHE - IXD   CLEAR     43  26  51 S16       29.95F
OLATHE - OJC   CLEAR     41  26  55 S16       29.95F WCI  33
LAWRENCE       CLEAR     44  29  55 SE13      29.93F

$$

MOZ001>008-011>017-020>025-030>033-038>040-044>046-053-054-161100-
...NORTHERN AND CENTRAL MISSOURI...

CITY           SKY/WX    TMP DP  RH WIND       PRES   REMARKS
ST. JOSEPH     PTCLDY    46  26  45 S17       29.91F
MOSBY          FAIR      45  27  49 SE7       29.98F
WHITEMAN AFB   CLEAR     41  23  48 S12       30.03F WCI  35
CLINTON        CLEAR     45  28  53 SE10      30.04F
SEDALIA        CLEAR     42  25  50 S15       30.05F WCI  34
WARSAW         NOT AVBL
MARSHALL         N/A     43  30  61 SE13      30.05F
CHILLICOTHE      N/A     43  24  47 S14G20    30.01F
MOBERLY        CLEAR     41  21  45 S16       30.07S WCI  33
KIRKSVILLE     CLEAR     36  24  62 S13       30.05S WCI  27

$$

MOZ041-047>049-056>058-063>065-088>090-097-161100-
...EASTERN AND SOUTHERN MISSOURI...

CITY           SKY/WX    TMP DP  RH WIND       PRES   REMARKS
ST. LOUIS INTL PTCLDY    40  22  48 SE12      30.22R WCI  33
SPIRIT OF STL  CLEAR     38  21  50 S7        30.20S WCI  33
COLUMBIA       CLEAR     37  23  56 SE13      30.09F WCI  29
JEFFERSON CITY CLEAR     39  24  55 E10       30.12F WCI  32
MEXICO         CLEAR     34  27  75 SE13      30.11F WCI  25
HANNIBAL       CLEAR     39  19  45 SE12G17   30.11F WCI  32
ROLLA          CLEAR     36  26  67 S15       30.13F WCI  27
LEBANON        CLEAR     39  27  60 S10       30.11S WCI  32
OSAGE BEACH    CLEAR     39  21  48 SE8       30.12F WCI  34
SPRINGFIELD    CLEAR     40  27  59 SE16      30.08S WCI  31
BRANSON        CLEAR     39  28  65 S8        30.12S WCI  34
NEVADA         CLEAR     43  28  56 S14       30.04S
JOPLIN         PTCLDY    44  26  49 S14       30.04S
WEST PLAINS    CLEAR     35  27  72 SE7       30.17F WCI  29

$$

IAZ060-094-KSZ022-034>040-054-083-096-NEZ052-066-093-161100-
...KANSAS...SOUTHEAST NEBRASKA AND IOWA...

CITY           SKY/WX    TMP DP  RH WIND       PRES   REMARKS
TOPEKA         CLEAR     47  27  45 S13       29.90F
MANHATTAN      CLEAR     48  25  40 S20G28    29.82F
EMPORIA        CLEAR     44  28  53 S20       29.89F
CHANUTE        CLEAR     43  29  57 S14       29.98F
WICHITA        PTCLDY    47  23  38 S22G35    29.86F
OMAHA          MOCLDY    45  29  53 S22G31    29.77F
LINCOLN        PTCLDY    49  23  36 S22G32    29.72F
FALLS CITY     CLEAR     47  29  49 S18G28    29.84F
LAMONI         PTCLDY    40  26  57 S13G21    29.93F WCI  32
DES MOINES     CLOUDY    42  26  53 S16       29.92F WCI  34

$$




USA.gov is the U.S. government's official web portal to all federal, state and local government web resources and services.